JZA732 KCLE-CYYZ

Flight info

Callsign JZA732
Flight time 0h 48m
Altitude 19000
Route PFLYD1 PATRC DCT FINGL NAKBO6
Aircraft DH8D/M-SDE2E3FGRY/H

Departure

Time 2026-05-05 23:13
Airport Cleveland Hopkins International Airport (KCLE)

Arrival

Time 2026-05-06 00:01
Airport Toronto Pearson International Airport (CYYZ)
Time Latitude Longitude Altitude Speed Heading
2026-05-05 22:47 41.41012 -81.83962 795 ft 0 kts 110°
2026-05-05 22:55 41.41012 -81.83963 795 ft 0 kts 109°
2026-05-05 23:02 41.41012 -81.83962 795 ft 0 kts 109°
2026-05-05 23:04 41.41013 -81.83967 795 ft 2 kts 109°
2026-05-05 23:05 41.41018 -81.83986 795 ft 2 kts 109°
2026-05-05 23:05 41.41027 -81.84001 795 ft 2 kts 154°
2026-05-05 23:05 41.41041 -81.84003 795 ft 2 kts 199°
2026-05-05 23:05 41.41051 -81.83993 795 ft 0 kts 238°
2026-05-05 23:06 41.41053 -81.83991 795 ft 0 kts 238°
2026-05-05 23:07 41.41052 -81.83991 795 ft 0 kts 238°
2026-05-05 23:07 41.41048 -81.84000 795 ft 1 kts 238°
2026-05-05 23:07 41.41041 -81.84016 795 ft 1 kts 238°
2026-05-05 23:08 41.41037 -81.84024 795 ft 0 kts 239°
2026-05-05 23:09 41.41031 -81.84038 795 ft 4 kts 239°
2026-05-05 23:09 41.41021 -81.84058 795 ft 5 kts 243°
2026-05-05 23:10 41.41011 -81.84123 795 ft 7 kts 277°
2026-05-05 23:10 41.41033 -81.84197 795 ft 10 kts 295°
2026-05-05 23:10 41.41056 -81.84290 794 ft 9 kts 276°
2026-05-05 23:10 41.41073 -81.84368 794 ft 12 kts 315°
2026-05-05 23:11 41.41163 -81.84382 793 ft 12 kts
2026-05-05 23:11 41.41228 -81.84312 793 ft 13 kts 50°
2026-05-05 23:11 41.41305 -81.84189 793 ft 16 kts 50°
2026-05-05 23:11 41.41382 -81.84156 793 ft 9 kts 339°
2026-05-05 23:12 41.41429 -81.84146 793 ft 8 kts 22°
2026-05-05 23:12 41.41499 -81.84189 793 ft 16 kts 314°
2026-05-05 23:12 41.41433 -81.84358 792 ft 31 kts 231°
2026-05-05 23:12 41.41115 -81.84863 790 ft 112 kts 229°
2026-05-05 23:13 41.40481 -81.85854 844 ft 157 kts 230°
2026-05-05 23:13 41.39724 -81.87005 1229 ft 171 kts 227°
2026-05-05 23:13 41.38988 -81.88274 1696 ft 181 kts 247°
2026-05-05 23:13 41.38879 -81.89934 2217 ft 186 kts 278°
2026-05-05 23:14 41.39097 -81.91675 2766 ft 194 kts 282°
2026-05-05 23:14 41.39743 -81.93221 3261 ft 201 kts 321°
2026-05-05 23:14 41.41112 -81.93649 3775 ft 213 kts
2026-05-05 23:14 41.42391 -81.92619 4285 ft 226 kts 43°
2026-05-05 23:15 41.43425 -81.90997 4776 ft 234 kts 50°
2026-05-05 23:15 41.44450 -81.89269 5284 ft 240 kts 51°
2026-05-05 23:15 41.45480 -81.87485 5795 ft 246 kts 51°
2026-05-05 23:15 41.46526 -81.85645 6304 ft 252 kts 52°
2026-05-05 23:16 41.47577 -81.83775 6811 ft 257 kts 53°
2026-05-05 23:16 41.48652 -81.81847 7330 ft 261 kts 53°
2026-05-05 23:16 41.49748 -81.79871 7837 ft 266 kts 53°
2026-05-05 23:16 41.50835 -81.77901 8429 ft 266 kts 53°
2026-05-05 23:17 41.51917 -81.75936 9064 ft 265 kts 53°
2026-05-05 23:17 41.53015 -81.73932 9595 ft 267 kts 54°
2026-05-05 23:17 41.54119 -81.71919 10116 ft 270 kts 54°
2026-05-05 23:17 41.55228 -81.69891 10630 ft 272 kts 54°
2026-05-05 23:18 41.56364 -81.67808 11096 ft 277 kts 54°
2026-05-05 23:18 41.57506 -81.65714 11576 ft 281 kts 53°
2026-05-05 23:18 41.58655 -81.63606 12117 ft 282 kts 53°
2026-05-05 23:18 41.59812 -81.61481 12577 ft 286 kts 54°
2026-05-05 23:19 41.60985 -81.59322 13032 ft 290 kts 53°
2026-05-05 23:19 41.62176 -81.57130 13539 ft 293 kts 54°
2026-05-05 23:19 41.63373 -81.54926 14048 ft 294 kts 53°
2026-05-05 23:19 41.64747 -81.52941 14460 ft 294 kts 29°
2026-05-05 23:20 41.66596 -81.51910 14899 ft 287 kts
2026-05-05 23:20 41.68529 -81.51186 15457 ft 286 kts
2026-05-05 23:20 41.70468 -81.50462 15906 ft 291 kts
2026-05-05 23:20 41.72395 -81.49749 16425 ft 291 kts
2026-05-05 23:21 41.74361 -81.49010 16947 ft 293 kts
2026-05-05 23:21 41.76334 -81.48274 17445 ft 295 kts
2026-05-05 23:21 41.78314 -81.47536 17907 ft 297 kts
2026-05-05 23:21 41.80273 -81.46806 18476 ft 296 kts
2026-05-05 23:22 41.82269 -81.46063 18847 ft 303 kts
2026-05-05 23:22 41.84379 -81.45286 18941 ft 321 kts
2026-05-05 23:22 41.86554 -81.44477 18990 ft 332 kts
2026-05-05 23:22 41.88810 -81.43639 19036 ft 338 kts
2026-05-05 23:23 41.91031 -81.42812 18976 ft 348 kts
2026-05-05 23:23 41.93379 -81.41932 19013 ft 353 kts 10°
2026-05-05 23:23 41.95757 -81.41041 18908 ft 360 kts
2026-05-05 23:23 41.98179 -81.40129 18837 ft 357 kts
2026-05-05 23:24 42.00523 -81.39257 18842 ft 351 kts
2026-05-05 23:24 42.02911 -81.38774 18889 ft 338 kts 357°
2026-05-05 23:24 42.05234 -81.38563 18846 ft 336 kts 355°
2026-05-05 23:24 42.07551 -81.38368 18838 ft 334 kts 356°
2026-05-05 23:25 42.09860 -81.38178 18867 ft 330 kts 355°
2026-05-05 23:25 42.12180 -81.37975 18822 ft 328 kts 355°
2026-05-05 23:25 42.14437 -81.37780 18839 ft 326 kts 355°
2026-05-05 23:25 42.16692 -81.37585 18849 ft 325 kts 354°
2026-05-05 23:26 42.18940 -81.37389 18847 ft 323 kts 355°
2026-05-05 23:26 42.21204 -81.37182 18831 ft 323 kts 356°
2026-05-05 23:26 42.23427 -81.36984 18843 ft 321 kts 354°
2026-05-05 23:26 42.25641 -81.36787 18844 ft 320 kts 355°
2026-05-05 23:27 42.27851 -81.36590 18843 ft 320 kts 354°
2026-05-05 23:27 42.30082 -81.36391 18870 ft 319 kts 355°
2026-05-05 23:27 42.32302 -81.36196 18842 ft 319 kts 355°
2026-05-05 23:27 42.34515 -81.35990 18851 ft 318 kts 355°
2026-05-05 23:28 42.36724 -81.35795 18843 ft 318 kts 354°
2026-05-05 23:28 42.38921 -81.35598 18842 ft 319 kts 355°
2026-05-05 23:28 42.41136 -81.35397 18843 ft 319 kts 355°
2026-05-05 23:28 42.43338 -81.35197 18844 ft 319 kts 355°
2026-05-05 23:29 42.45578 -81.34994 18849 ft 318 kts 355°
2026-05-05 23:29 42.47778 -81.34795 18847 ft 317 kts 355°
2026-05-05 23:29 42.50000 -81.34591 18826 ft 316 kts 354°
2026-05-05 23:29 42.52187 -81.34391 18838 ft 315 kts 354°
2026-05-05 23:30 42.54387 -81.34195 18832 ft 315 kts 355°
2026-05-05 23:30 42.56567 -81.33997 18819 ft 316 kts 355°
2026-05-05 23:30 42.58738 -81.33801 18836 ft 315 kts 355°
2026-05-05 23:30 42.60943 -81.33601 18839 ft 315 kts 355°
2026-05-05 23:31 42.63123 -81.33402 18843 ft 315 kts 354°
2026-05-05 23:31 42.65310 -81.33205 18845 ft 315 kts 354°
2026-05-05 23:31 42.67490 -81.33003 18862 ft 314 kts 354°
2026-05-05 23:31 42.69678 -81.32805 18853 ft 315 kts 355°
2026-05-05 23:32 42.71878 -81.32604 18837 ft 315 kts 355°
2026-05-05 23:32 42.74047 -81.32403 18848 ft 315 kts 355°
2026-05-05 23:32 42.76228 -81.31841 18829 ft 328 kts 15°
2026-05-05 23:32 42.78284 -81.30446 18851 ft 332 kts 24°
2026-05-05 23:33 42.80329 -81.28928 18839 ft 332 kts 23°
2026-05-05 23:33 42.82366 -81.27417 18837 ft 332 kts 23°
2026-05-05 23:33 42.84369 -81.25935 18833 ft 333 kts 22°
2026-05-05 23:33 42.86421 -81.24416 18834 ft 334 kts 22°
2026-05-05 23:34 42.88452 -81.22916 18842 ft 334 kts 23°
2026-05-05 23:34 42.90500 -81.21407 18853 ft 334 kts 22°
2026-05-05 23:34 42.92551 -81.19897 18839 ft 336 kts 22°
2026-05-05 23:34 42.94607 -81.18382 18835 ft 337 kts 23°
2026-05-05 23:35 42.96672 -81.16859 18838 ft 336 kts 23°
2026-05-05 23:35 42.98711 -81.15359 18835 ft 337 kts 24°
2026-05-05 23:35 43.00797 -81.13819 18846 ft 338 kts 22°
2026-05-05 23:35 43.02868 -81.12288 18838 ft 339 kts 24°
2026-05-05 23:36 43.04930 -81.10763 18832 ft 340 kts 22°
2026-05-05 23:36 43.06904 -81.08937 18799 ft 347 kts 43°
2026-05-05 23:36 43.08417 -81.06392 18864 ft 346 kts 53°
2026-05-05 23:36 43.09843 -81.03781 18853 ft 347 kts 52°
2026-05-05 23:37 43.11286 -81.01134 18851 ft 347 kts 53°
2026-05-05 23:37 43.12741 -80.98474 18850 ft 343 kts 52°
2026-05-05 23:37 43.14178 -80.95853 18386 ft 344 kts 53°
2026-05-05 23:37 43.15639 -80.93186 17982 ft 344 kts 52°
2026-05-05 23:38 43.17057 -80.90600 17564 ft 341 kts 51°
2026-05-05 23:38 43.18471 -80.88018 17080 ft 338 kts 52°
2026-05-05 23:38 43.19886 -80.85433 16616 ft 336 kts 51°
2026-05-05 23:38 43.21279 -80.82888 16197 ft 331 kts 51°
2026-05-05 23:39 43.22634 -80.80413 15759 ft 328 kts 51°
2026-05-05 23:39 43.23999 -80.77914 15312 ft 326 kts 51°
2026-05-05 23:39 43.25351 -80.75434 14916 ft 321 kts 51°
2026-05-05 23:39 43.26678 -80.73001 14463 ft 320 kts 50°
2026-05-05 23:40 43.28007 -80.70563 14083 ft 316 kts 51°
2026-05-05 23:40 43.29308 -80.68172 13630 ft 317 kts 51°
2026-05-05 23:40 43.30613 -80.65773 13279 ft 312 kts 50°
2026-05-05 23:40 43.31913 -80.63380 12780 ft 314 kts 51°
2026-05-05 23:41 43.33202 -80.61008 12428 ft 309 kts 50°
2026-05-05 23:41 43.34490 -80.58635 12009 ft 309 kts 50°
2026-05-05 23:41 43.35759 -80.56296 11633 ft 305 kts 51°
2026-05-05 23:41 43.37016 -80.53976 11231 ft 303 kts 50°
2026-05-05 23:42 43.38271 -80.51656 10827 ft 300 kts 50°
2026-05-05 23:42 43.39510 -80.49366 10411 ft 300 kts 50°
2026-05-05 23:42 43.40751 -80.47073 9996 ft 298 kts 50°
2026-05-05 23:42 43.41973 -80.44808 9676 ft 292 kts 49°
2026-05-05 23:43 43.43175 -80.42582 9281 ft 289 kts 50°
2026-05-05 23:43 43.44358 -80.40385 8990 ft 282 kts 49°
2026-05-05 23:43 43.45486 -80.38266 8777 ft 272 kts 52°
2026-05-05 23:43 43.46348 -80.35950 8346 ft 274 kts 66°
2026-05-05 23:44 43.47015 -80.33549 8113 ft 263 kts 69°
2026-05-05 23:44 43.47651 -80.31212 8037 ft 262 kts 69°
2026-05-05 23:44 43.48395 -80.28908 8012 ft 265 kts 58°
2026-05-05 23:44 43.49381 -80.26733 7995 ft 265 kts 53°
2026-05-05 23:45 43.50377 -80.24620 7982 ft 262 kts 53°
2026-05-05 23:45 43.51364 -80.22530 7985 ft 259 kts 54°
2026-05-05 23:45 43.52341 -80.20459 7983 ft 256 kts 53°
2026-05-05 23:45 43.53310 -80.18404 7980 ft 253 kts 53°
2026-05-05 23:46 43.54271 -80.16365 7977 ft 250 kts 54°
2026-05-05 23:46 43.55203 -80.14384 7980 ft 247 kts 54°
2026-05-05 23:46 43.56136 -80.12399 7982 ft 244 kts 54°
2026-05-05 23:46 43.57058 -80.10438 7987 ft 243 kts 53°
2026-05-05 23:47 43.57998 -80.08431 8001 ft 257 kts 53°
2026-05-05 23:47 43.58993 -80.06310 8010 ft 271 kts 53°
2026-05-05 23:47 43.60048 -80.04062 8009 ft 284 kts 54°
2026-05-05 23:47 43.61159 -80.01694 8003 ft 295 kts 54°
2026-05-05 23:48 43.62277 -79.99303 8001 ft 304 kts 54°
2026-05-05 23:48 43.63417 -79.96868 7988 ft 294 kts 54°
2026-05-05 23:48 43.64500 -79.94554 7984 ft 284 kts 54°
2026-05-05 23:48 43.65558 -79.92292 7983 ft 276 kts 54°
2026-05-05 23:49 43.66594 -79.90074 7995 ft 272 kts 54°
2026-05-05 23:49 43.67607 -79.87906 7803 ft 266 kts 53°
2026-05-05 23:49 43.68619 -79.85744 7457 ft 266 kts 53°
2026-05-05 23:49 43.69608 -79.83625 7136 ft 266 kts 53°
2026-05-05 23:50 43.70593 -79.81507 6953 ft 259 kts 53°
2026-05-05 23:50 43.71564 -79.79421 6729 ft 256 kts 53°
2026-05-05 23:50 43.72523 -79.77356 6530 ft 252 kts 53°
2026-05-05 23:50 43.73460 -79.75339 6312 ft 249 kts 53°
2026-05-05 23:51 43.74392 -79.73337 5976 ft 246 kts 53°
2026-05-05 23:51 43.75395 -79.71462 5570 ft 242 kts 44°
2026-05-05 23:51 43.76531 -79.69795 5188 ft 239 kts 41°
2026-05-05 23:51 43.77687 -79.68132 4842 ft 234 kts 42°
2026-05-05 23:52 43.78813 -79.66509 4461 ft 232 kts 42°
2026-05-05 23:52 43.79915 -79.64919 4167 ft 225 kts 43°
2026-05-05 23:52 43.80976 -79.63378 4059 ft 217 kts 43°
2026-05-05 23:52 43.81992 -79.61896 4019 ft 211 kts 43°
2026-05-05 23:53 43.82991 -79.60441 4005 ft 203 kts 43°
2026-05-05 23:53 43.83952 -79.59042 3999 ft 197 kts 42°
2026-05-05 23:53 43.84880 -79.57687 3997 ft 195 kts 43°
2026-05-05 23:53 43.85810 -79.56329 3994 ft 193 kts 42°
2026-05-05 23:54 43.86738 -79.54973 3994 ft 192 kts 43°
2026-05-05 23:54 43.87646 -79.53645 3995 ft 190 kts 43°
2026-05-05 23:54 43.88374 -79.52126 3938 ft 186 kts 71°
2026-05-05 23:54 43.88360 -79.50362 3438 ft 185 kts 112°
2026-05-05 23:55 43.87624 -79.49055 3195 ft 167 kts 140°
2026-05-05 23:55 43.86743 -79.47999 3105 ft 161 kts 140°
2026-05-05 23:55 43.85909 -79.46987 3049 ft 159 kts 140°
2026-05-05 23:55 43.85026 -79.46035 3024 ft 162 kts 158°
2026-05-05 23:56 43.83979 -79.45940 3004 ft 147 kts 201°
2026-05-05 23:56 43.82936 -79.46379 3038 ft 169 kts 200°
2026-05-05 23:56 43.81790 -79.46837 3017 ft 170 kts 199°
2026-05-05 23:56 43.80695 -79.47285 2993 ft 158 kts 199°
2026-05-05 23:57 43.79696 -79.47679 2917 ft 135 kts 199°
2026-05-05 23:57 43.78822 -79.48211 2451 ft 152 kts 229°
2026-05-05 23:57 43.78154 -79.49365 2554 ft 159 kts 243°
2026-05-05 23:57 43.77665 -79.50793 2634 ft 170 kts 253°
2026-05-05 23:58 43.77007 -79.52307 2493 ft 193 kts 231°
2026-05-05 23:58 43.76080 -79.53674 2267 ft 189 kts 227°
2026-05-05 23:58 43.75225 -79.54887 2166 ft 166 kts 229°
2026-05-05 23:58 43.74485 -79.56008 1893 ft 153 kts 230°
2026-05-05 23:59 43.73796 -79.57032 1625 ft 139 kts 229°
2026-05-05 23:59 43.73163 -79.58051 1385 ft 141 kts 231°
2026-05-05 23:59 43.72469 -79.59007 1315 ft 139 kts 228°
2026-05-05 23:59 43.71808 -79.59968 1218 ft 136 kts 230°
2026-05-06 00:00 43.71162 -79.60934 1062 ft 133 kts 227°
2026-05-06 00:00 43.70544 -79.61842 887 ft 130 kts 226°
2026-05-06 00:00 43.69921 -79.62748 734 ft 130 kts 226°
2026-05-06 00:00 43.69299 -79.63663 562 ft 124 kts 225°
2026-05-06 00:01 43.68785 -79.64417 546 ft 84 kts 226°
2026-05-06 00:01 43.68444 -79.64911 548 ft 66 kts 227°
2026-05-06 00:01 43.68183 -79.65102 550 ft 25 kts 193°
2026-05-06 00:01 43.68102 -79.64998 547 ft 22 kts 47°
2026-05-06 00:02 43.68244 -79.64804 544 ft 34 kts 46°
2026-05-06 00:02 43.68376 -79.64610 543 ft 25 kts 45°
2026-05-06 00:02 43.68532 -79.64384 544 ft 39 kts 46°
2026-05-06 00:02 43.68702 -79.64143 545 ft 28 kts 50°
2026-05-06 00:03 43.68863 -79.63901 547 ft 34 kts 45°
2026-05-06 00:03 43.69009 -79.63689 549 ft 19 kts 47°
2026-05-06 00:03 43.68953 -79.63515 550 ft 28 kts 137°
2026-05-06 00:03 43.68795 -79.63310 554 ft 32 kts 136°
2026-05-06 00:04 43.68655 -79.63127 558 ft 28 kts 136°
2026-05-06 00:04 43.68494 -79.62919 563 ft 34 kts 136°
2026-05-06 00:04 43.68356 -79.62737 566 ft 26 kts 135°
2026-05-06 00:04 43.68216 -79.62554 570 ft 20 kts 139°
2026-05-06 00:05 43.67960 -79.62225 573 ft 10 kts 137°
2026-05-06 00:05 43.67907 -79.62175 573 ft 14 kts 157°
2026-05-06 00:05 43.67801 -79.62084 572 ft 17 kts 137°
2026-05-06 00:06 43.67691 -79.61941 570 ft 25 kts 136°
2026-05-06 00:06 43.67571 -79.61784 568 ft 21 kts 136°
2026-05-06 00:06 43.67459 -79.61637 566 ft 22 kts 136°
2026-05-06 00:06 43.67354 -79.61499 563 ft 20 kts 136°
2026-05-06 00:07 43.67258 -79.61373 561 ft 17 kts 136°
2026-05-06 00:07 43.67254 -79.61227 559 ft 19 kts 51°
2026-05-06 00:07 43.67332 -79.61089 560 ft 18 kts 55°
2026-05-06 00:07 43.67419 -79.60925 560 ft 20 kts 53°
2026-05-06 00:08 43.67497 -79.60789 560 ft 16 kts 49°
2026-05-06 00:08 43.67586 -79.60666 559 ft 19 kts 45°
2026-05-06 00:08 43.67685 -79.60662 561 ft 15 kts 327°
2026-05-06 00:08 43.67754 -79.60725 562 ft 8 kts 319°
2026-05-06 00:09 43.67796 -79.60784 564 ft 11 kts 312°
2026-05-06 00:09 43.67862 -79.60873 566 ft 9 kts 316°
2026-05-06 00:09 43.67910 -79.60902 567 ft 5 kts 37°
2026-05-06 00:09 43.67930 -79.60876 567 ft 0 kts 46°
2026-05-06 00:10 43.67936 -79.60867 567 ft 0 kts 46°